Hof Plauen, Germany

3:27 AM CEST on July 27, 2017 (GMT +0200)
Hof-Plauen

Weather History for EDQM - October, 2013

Change the Weather History Date:

Tuesday, October 15, 2013

  Actual Average Record
Temperature  
Mean Temperature 44 °F -  
Max Temperature 50 °F 44 °F 73 °F (2001)
Min Temperature 39 °F 36 °F 26 °F (2003)
Degree Days  
Heating Degree Days 20    
Moisture  
Dew Point 43 °F    
Average Humidity 85    
Maximum Humidity 95    
Minimum Humidity 72    
Precipitation  
Precipitation 0.12 in - - ()
Sea Level Pressure  
Sea Level Pressure 29.86 in    
Wind  
Wind Speed 7 mph ()    
Max Wind Speed 16 mph    
Max Gust Speed 31 mph    
Visibility 6.7 miles    
Events Rain    
Averages and records for this station are not official NWS values.
T = Trace of Precipitation, MM = Missing Value Source: Averaged Metar Reports

Daily Weather History Graph

Daily Weather History Graph

Search for Another Location

Airport or City:

Trip Planner

Search our weather history database for the weather conditions in past years. The results will help you decide how hot, cold, wet, or windy it might be!

Date:

Astronomy

Oct. 15, 2013 Rise Set
Actual Time 7:34 AM CEST 6:20 PM CEST
Civil Twilight 7:01 AM CEST 6:53 PM CEST
Nautical Twilight 6:24 AM CEST 7:31 PM CEST
Astronomical Twilight 5:46 AM CEST 8:08 PM CEST
Moon 4:33 PM CEST (10/15) 3:17 AM CEST (10/15)
Length of Visible Light 11h 51m
Length of Day
10h 45m
Waxing Gibbous, 85% of the Moon is Illuminated
Oct 15
Waxing Gibbous
Oct 19
Full
Oct 27
Last Quarter
Nov 3
New
Nov 10
First Quarter

Hourly Weather History & Observations

Time (CEST) Temp. Windchill Dew Point Humidity Pressure Visibility Wind Dir Wind Speed Gust Speed Precip Events Conditions
12:00 AM 48 °F - 44 °F 79% 30.02 in 12 mi South 6.7 mph - -   Overcast
12:20 AM 46.4 °F 43.5 °F 41.0 °F 81% 30.01 in 6.2 mi SSE 5.8 mph - N/A   Scattered Clouds
12:50 AM 46.4 °F 42.9 °F 41.0 °F 81% 30.01 in 6.2 mi SSE 6.9 mph - N/A   Scattered Clouds
1:00 AM 47 °F - 43 °F 82% 30.01 in 9 mi South 6.7 mph - -   Overcast
1:20 AM 44.6 °F 43.1 °F 41.0 °F 87% 30.01 in 6.2 mi SSE 3.5 mph - N/A   Scattered Clouds
1:50 AM 44.6 °F - 41.0 °F 87% 30.01 in 6.2 mi Variable 1.2 mph - N/A   Mostly Cloudy
2:00 AM 46 °F - 43 °F 85% 30.01 in 8 mi SSE 6.7 mph - -   Overcast
2:20 AM 44.6 °F 42.2 °F 41.0 °F 87% 30.01 in 6.2 mi SE 4.6 mph - N/A   Mostly Cloudy
2:50 AM 44.6 °F - 41.0 °F 87% 29.98 in 6.2 mi Variable 1.2 mph - N/A   Partly Cloudy
3:00 AM 46 °F - 43 °F 85% 30.00 in 6 mi South 6.7 mph - - Rain Light Drizzle
3:20 AM 44.6 °F - 41.0 °F 87% 29.98 in 6.2 mi Variable 1.2 mph - N/A Rain Light Rain
3:50 AM 46.4 °F - 42.8 °F 87% 29.95 in 5.0 mi Variable 2.3 mph - N/A Rain Light Rain
4:00 AM 46 °F - 44 °F 89% 29.96 in 4 mi SSE 6.7 mph - - Rain Rain
4:20 AM 44.6 °F - 41.0 °F 87% 29.95 in 5.0 mi Variable 1.2 mph - N/A   Mostly Cloudy
4:50 AM 46.4 °F 45.2 °F 42.8 °F 87% 29.95 in 3.1 mi SSE 3.5 mph - N/A   Drizzle
5:20 AM 46.4 °F 44.3 °F 42.8 °F 87% 29.92 in 3.1 mi SE 4.6 mph - N/A   Mostly Cloudy
5:50 AM 46.4 °F 43.5 °F 42.8 °F 87% 29.92 in 3.1 mi SSE 5.8 mph - N/A   Overcast
6:20 AM 46.4 °F 42.9 °F 42.8 °F 87% 29.89 in - SSE 6.9 mph - N/A   Mostly Cloudy
6:50 AM 46.4 °F 44.3 °F 42.8 °F 87% 29.89 in 3.7 mi South 4.6 mph - N/A   Mostly Cloudy
7:00 AM 47 °F - 45 °F 90% 29.89 in 3 mi South 6.7 mph - - Rain Light Rain
7:20 AM 46.4 °F 44.3 °F 42.8 °F 87% 29.89 in 1.7 mi South 4.6 mph - N/A Rain Heavy Rain
7:50 AM 46.4 °F 42.4 °F 44.6 °F 93% 29.89 in 3.1 mi Variable 8.1 mph - N/A   Light Drizzle
8:00 AM 47 °F - 46 °F 94% 29.88 in 3 mi South 6.7 mph - - Rain Light Drizzle
8:20 AM 46.4 °F 44.3 °F 44.6 °F 93% 29.89 in - Variable 4.6 mph - N/A Rain Rain
8:50 AM 46.4 °F 43.5 °F 44.6 °F 93% 29.89 in - South 5.8 mph - N/A Rain Rain
9:00 AM 47 °F - 46 °F 95% 29.87 in 2 mi South 6.7 mph - - Rain Rain
9:20 AM 48.2 °F - 44.6 °F 87% 29.86 in 3.7 mi South 9.2 mph - N/A Rain Light Rain
9:50 AM 48.2 °F - 46.4 °F 93% 29.86 in 6.2 mi South 12.7 mph - N/A   Mostly Cloudy
10:00 AM 48 °F - 46 °F 91% 29.85 in 7 mi South 8.9 mph - - Rain Light Rain
10:20 AM 48.2 °F - 44.6 °F 87% 29.86 in 5.6 mi South 11.5 mph - N/A Rain Light Rain
10:50 AM 48.2 °F - 44.6 °F 87% 29.86 in 3.1 mi SSW 16.1 mph 31.1 mph N/A Rain Light Rain
11:20 AM 48.2 °F - 44.6 °F 87% 29.86 in 6.2 mi SSW 13.8 mph - N/A   Mostly Cloudy
11:50 AM 48.2 °F - 44.6 °F 87% 29.86 in 6.2 mi SSW 13.8 mph 25.3 mph N/A   Mostly Cloudy
12:00 PM 49 °F - 46 °F 86% 29.84 in 19 mi SW 11.2 mph - - Rain Light Rain Showers
12:20 PM 50.0 °F - 46.4 °F 87% 29.86 in 6.2 mi SSW 13.8 mph - N/A   Mostly Cloudy
12:50 PM 50.0 °F - 44.6 °F 82% 29.86 in 6.2 mi SSW 15.0 mph - N/A   Mostly Cloudy
1:00 PM 49 °F - 46 °F 84% 29.84 in 25 mi SW 8.9 mph - -   Mostly Cloudy
1:20 PM 50.0 °F - 44.6 °F 82% 29.86 in 6.2 mi SW 16.1 mph - N/A   Mostly Cloudy
1:50 PM 50.0 °F - 42.8 °F 76% 29.83 in 6.2 mi SW 13.8 mph - N/A   Mostly Cloudy
2:00 PM 51 °F - 45 °F 74% 29.82 in 34 mi SW 11.2 mph - -   Partly Cloudy
2:20 PM 50.0 °F - 42.8 °F 76% 29.80 in 6.2 mi SSW 12.7 mph - N/A Rain Light Rain
2:50 PM 50.0 °F - 42.8 °F 76% 29.80 in 6.2 mi SSW 11.5 mph - N/A   Mostly Cloudy
3:00 PM 49 °F - 45 °F 81% 29.80 in 31 mi SW 6.7 mph - - Rain Light Rain
3:20 PM 48.2 °F - 42.8 °F 82% 29.80 in 6.2 mi SSW 10.4 mph - N/A   Mostly Cloudy
3:50 PM 48.2 °F - 42.8 °F 82% 29.80 in 6.2 mi SW 11.5 mph - N/A   Scattered Clouds
4:00 PM 49 °F - 43 °F 72% 29.79 in 37 mi WSW 8.9 mph - - Rain Light Rain
4:20 PM 48.2 °F - 42.8 °F 82% 29.77 in 6.2 mi SW 10.4 mph - N/A   Mostly Cloudy
4:50 PM 48.2 °F - 42.8 °F 82% 29.77 in 6.2 mi SSW 10.4 mph - N/A   Scattered Clouds
5:20 PM 48.2 °F - 42.8 °F 82% 29.77 in 6.2 mi SW 8.1 mph - N/A   Mostly Cloudy
5:50 PM 48.2 °F - 42.8 °F 82% 29.77 in 6.2 mi SW 10.4 mph - N/A   Mostly Cloudy
6:00 PM 48 °F - 44 °F 80% 29.76 in 16 mi West 6.7 mph - -  
6:20 PM 46.4 °F 42.4 °F 42.8 °F 87% 29.77 in 6.2 mi SW 8.1 mph - N/A   Mostly Cloudy
6:50 PM 46.4 °F 43.5 °F 41.0 °F 81% 29.77 in 6.2 mi SW 5.8 mph - N/A   Mostly Cloudy
7:00 PM 46 °F - 43 °F 84% 29.76 in 16 mi WSW 6.7 mph - - Rain Rain
7:20 PM 46.4 °F 44.3 °F 39.2 °F 76% 29.74 in 6.2 mi Variable 4.6 mph - N/A   Mostly Cloudy
7:50 PM 44.6 °F 42.2 °F 41.0 °F 87% 29.77 in 6.2 mi Variable 4.6 mph - N/A   Mostly Cloudy
8:00 PM 45 °F - 42 °F 84% 29.77 in 15 mi SSW 4.5 mph - -   Clear
8:20 PM 44.6 °F 39.2 °F 41.0 °F 87% 29.74 in 3.1 mi SW 10.4 mph - N/A Rain Rain
8:50 PM 44.6 °F 39.7 °F 41.0 °F 87% 29.74 in 6.2 mi SW 9.2 mph - N/A   Mostly Cloudy
9:00 PM 45 °F - 42 °F 83% 29.77 in 17 mi WSW 6.7 mph - - Rain Rain
9:20 PM 44.6 °F 39.7 °F 41.0 °F 87% 29.74 in 6.2 mi WSW 9.2 mph - N/A   Partly Cloudy
9:50 PM 44.6 °F 40.7 °F 39.2 °F 81% 29.77 in 6.2 mi SW 6.9 mph - N/A   Overcast
10:00 PM 44 °F - 41 °F 86% 29.78 in 16 mi WSW 4.5 mph - - Rain Rain
10:20 PM 42.8 °F 39.3 °F 37.4 °F 81% 29.77 in 6.2 mi SW 5.8 mph - N/A   Scattered Clouds
10:50 PM 41.0 °F 37.1 °F 37.4 °F 87% 29.77 in 6.2 mi SW 5.8 mph - N/A   Partly Cloudy
11:20 PM 39.2 °F 35.0 °F 35.6 °F 87% 29.77 in 6.2 mi SSW 5.8 mph - N/A   Partly Cloudy
11:50 PM 41.0 °F 38.0 °F 37.4 °F 87% 29.77 in 6.2 mi SW 4.6 mph - N/A   Mostly Cloudy